Valley City, ND

10:54 PM CST on November 19, 2019 (GMT -0600)
Valley City

Weather History for KBAC - August, 2019

Change the Weather History Date:

Wednesday, August 14, 2019

  Actual Average (KJMS) Record (KJMS)
Temperature  
Mean Temperature 65 °F -  
Max Temperature 73 °F 82 °F 103 °F (1937)
Min Temperature 57 °F 55 °F 34 °F (1968)
Growing Degree Days 15 (Base 50)    
Moisture  
Dew Point 56 °F    
Average Humidity 78    
Maximum Humidity 100    
Minimum Humidity 36    
Precipitation  
Precipitation 0.00 in - - ()
Sea Level Pressure  
Sea Level Pressure 30.12 in    
Wind  
Wind Speed 7 mph (WNW)    
Max Wind Speed 13 mph    
Max Gust Speed 12 mph    
Visibility 10 miles    
Events      
Averages and records for this station are not official NWS values.
T = Trace of Precipitation, MM = Missing Value Source: NWS Daily Summary

Daily Weather History Graph

Daily Weather History Graph

Search for Another Location

Airport or City:

Astronomy

Aug. 14, 2019 Rise Set
Actual Time 6:27 AM CDT 8:44 PM CDT
Civil Twilight 5:54 AM CDT 9:18 PM CDT
Nautical Twilight 5:12 AM CDT 9:59 PM CDT
Astronomical Twilight 4:25 AM CDT 10:46 PM CDT
Moon 8:44 PM CDT (8/14) 5:20 AM CDT (8/14)
Length of Visible Light 15h 23m
Length of Day
14h 16m
Waxing Gibbous, 99% of the Moon is Illuminated
Aug 14
Waxing Gibbous
Aug 15
Full
Aug 23
Last Quarter
Aug 30
New
Sep 5
First Quarter

Hourly Weather History & Observations

Time (CDT) Temp. Dew Point Humidity Pressure Visibility Wind Dir Wind Speed Gust Speed Precip Events Conditions
12:15 AM 59.0 °F 59.0 °F 100% 30.12 in 10.0 mi NNW 8.1 mph - N/A   Overcast
12:35 AM 59.0 °F 59.0 °F 100% 30.13 in 10.0 mi NNW 9.2 mph - N/A   Overcast
12:55 AM 59.0 °F 59.0 °F 100% 30.13 in 10.0 mi NNW 8.1 mph - N/A   Overcast
1:15 AM 59.0 °F 59.0 °F 100% 30.13 in 10.0 mi NW 8.1 mph - N/A   Overcast
1:55 AM 59.0 °F 59.0 °F 100% 30.14 in 10.0 mi NNW 8.1 mph - N/A   Overcast
2:15 AM 60.8 °F 60.8 °F 100% 30.14 in 10.0 mi NNW 8.1 mph - N/A   Overcast
2:35 AM 60.8 °F 60.8 °F 100% 30.14 in 10.0 mi North 6.9 mph - N/A   Overcast
2:55 AM - - N/A% 30.14 in 10.0 mi NNW 8.1 mph - N/A   Overcast
3:15 AM 60.8 °F 59.0 °F 94% 30.14 in 10.0 mi North 11.5 mph - N/A   Overcast
3:35 AM 60.8 °F 57.2 °F 88% 30.13 in 10.0 mi North 12.7 mph - N/A   Overcast
3:55 AM 60.8 °F 55.4 °F 82% 30.13 in 10.0 mi North 10.4 mph - N/A   Overcast
4:15 AM 60.8 °F 55.4 °F 82% 30.14 in 10.0 mi North 10.4 mph - N/A   Overcast
4:35 AM 60.8 °F 57.2 °F 88% 30.14 in 10.0 mi NW 9.2 mph - N/A   Overcast
4:55 AM 59.0 °F 59.0 °F 100% 30.14 in 10.0 mi NW 10.4 mph - N/A   Overcast
5:15 AM 59.0 °F 59.0 °F 100% 30.14 in 10.0 mi NW 11.5 mph - N/A   Overcast
5:35 AM 59.0 °F 59.0 °F 100% 30.14 in 10.0 mi NW 11.5 mph - N/A   Overcast
5:55 AM 59.0 °F 59.0 °F 100% 30.14 in 10.0 mi NW 10.4 mph - N/A   Overcast
6:15 AM 59.0 °F 59.0 °F 100% 30.14 in 10.0 mi NW 10.4 mph - N/A   Overcast
6:55 AM 59.0 °F 59.0 °F 100% 30.15 in 10.0 mi NW 9.2 mph - N/A   Overcast
7:15 AM 59.0 °F 59.0 °F 100% 30.15 in 10.0 mi NW 8.1 mph - N/A   Overcast
7:35 AM 59.0 °F 59.0 °F 100% 30.16 in 10.0 mi NW 6.9 mph - N/A   Overcast
7:55 AM 59.0 °F 59.0 °F 100% 30.16 in 10.0 mi NW 8.1 mph - N/A   Overcast
8:15 AM 59.0 °F 59.0 °F 100% 30.16 in 10.0 mi NW 6.9 mph - N/A   Overcast
8:35 AM - - N/A% 30.16 in 10.0 mi NW 8.1 mph - N/A   Overcast
8:55 AM 60.8 °F 60.8 °F 100% 30.16 in 10.0 mi NW 9.2 mph - N/A   Overcast
9:15 AM 62.6 °F 60.8 °F 94% 30.16 in 10.0 mi WNW 8.1 mph - N/A   Overcast
9:35 AM 64.4 °F 59.0 °F 83% 30.16 in 10.0 mi NW 8.1 mph - N/A   Overcast
9:55 AM 64.4 °F 59.0 °F 83% 30.16 in 10.0 mi NW 8.1 mph - N/A   Overcast
10:15 AM 66.2 °F 59.0 °F 78% 30.16 in 10.0 mi NW 5.8 mph - N/A   Overcast
10:35 AM 66.2 °F 59.0 °F 78% 30.17 in 10.0 mi NW 5.8 mph - N/A   Overcast
10:55 AM 66.2 °F 59.0 °F 78% 30.17 in 10.0 mi WNW 5.8 mph - N/A   Overcast
11:15 AM 66.2 °F 55.4 °F 68% 30.17 in 10.0 mi NW 3.5 mph - N/A   Overcast
11:35 AM 68.0 °F 55.4 °F 64% 30.17 in 10.0 mi NW 8.1 mph - N/A   Overcast
11:55 AM 69.8 °F 48.2 °F 46% 30.17 in 10.0 mi Variable 5.8 mph - N/A   Overcast
12:15 PM 71.6 °F 53.6 °F 53% 30.16 in 10.0 mi NW 6.9 mph - N/A   Overcast
12:35 PM 71.6 °F 50.0 °F 46% 30.16 in 10.0 mi WNW 4.6 mph 11.5 mph N/A   Overcast
12:55 PM 71.6 °F 48.2 °F 43% 30.15 in 10.0 mi Calm Calm - N/A   Overcast
1:15 PM 71.6 °F 48.2 °F 43% 30.15 in 10.0 mi Variable 4.6 mph - N/A   Overcast
1:35 PM 71.6 °F 50.0 °F 46% 30.14 in 10.0 mi Variable 3.5 mph - N/A   Overcast
1:55 PM 71.6 °F 50.0 °F 46% 30.14 in 10.0 mi Calm Calm - N/A   Overcast
2:15 PM 71.6 °F 51.8 °F 50% 30.13 in 10.0 mi Variable 3.5 mph - N/A   Mostly Cloudy
2:35 PM 71.6 °F 48.2 °F 43% 30.13 in 10.0 mi WSW 4.6 mph - N/A   Clear
2:55 PM 73.4 °F 48.2 °F 41% 30.12 in 10.0 mi WSW 6.9 mph - N/A   Clear
3:15 PM 73.4 °F 46.4 °F 38% 30.12 in 10.0 mi WSW 6.9 mph - N/A   Clear
3:35 PM 73.4 °F 44.6 °F 36% 30.11 in 10.0 mi Variable 6.9 mph - N/A   Scattered Clouds
3:55 PM 73.4 °F 46.4 °F 38% 30.11 in 10.0 mi SSW 4.6 mph - N/A   Mostly Cloudy
4:15 PM 71.6 °F 48.2 °F 43% 30.11 in 10.0 mi West 6.9 mph - N/A   Overcast
4:35 PM 71.6 °F 50.0 °F 46% 30.10 in 10.0 mi West 6.9 mph - N/A   Overcast
4:55 PM 71.6 °F 50.0 °F 46% 30.10 in 10.0 mi WSW 4.6 mph - N/A   Overcast
5:15 PM 71.6 °F 51.8 °F 50% 30.10 in 10.0 mi WSW 4.6 mph - N/A   Overcast
5:55 PM 71.6 °F 53.6 °F 53% 30.08 in 10.0 mi West 4.6 mph - N/A   Overcast
6:15 PM 71.6 °F 53.6 °F 53% 30.08 in 10.0 mi WSW 5.8 mph - N/A   Mostly Cloudy
6:35 PM 71.6 °F 53.6 °F 53% 30.08 in 10.0 mi WSW 5.8 mph - N/A   Overcast
6:55 PM 71.6 °F 53.6 °F 53% 30.07 in 10.0 mi WSW 6.9 mph - N/A   Overcast
7:15 PM 68.0 °F 55.4 °F 64% 30.07 in 10.0 mi WSW 5.8 mph - N/A   Mostly Cloudy
7:35 PM 68.0 °F 59.0 °F 73% 30.07 in 10.0 mi West 4.6 mph - N/A   Scattered Clouds
7:55 PM 66.2 °F 60.8 °F 83% 30.07 in 10.0 mi WSW 3.5 mph - N/A   Clear
8:15 PM 66.2 °F 60.8 °F 83% 30.07 in 10.0 mi Calm Calm - N/A   Clear
8:35 PM 62.6 °F 62.6 °F 100% 30.07 in 10.0 mi Calm Calm - N/A   Clear
8:55 PM 60.8 °F 60.8 °F 100% 30.07 in 10.0 mi Calm Calm - N/A   Clear
9:15 PM 60.8 °F 59.0 °F 94% 30.07 in 10.0 mi SW 5.8 mph - N/A   Clear
9:35 PM 62.6 °F 59.0 °F 88% 30.07 in 10.0 mi SSW 3.5 mph - N/A   Clear
9:55 PM 60.8 °F 59.0 °F 94% 30.07 in 10.0 mi SSW 4.6 mph - N/A   Clear
10:15 PM 60.8 °F 60.8 °F 100% 30.07 in 10.0 mi SSW 4.6 mph - N/A   Clear
10:35 PM 59.0 °F 59.0 °F 100% 30.07 in 10.0 mi South 3.5 mph - N/A   Clear
10:55 PM 59.0 °F 59.0 °F 100% 30.08 in 10.0 mi South 3.5 mph - N/A   Clear
11:15 PM 59.0 °F 59.0 °F 100% 30.08 in 10.0 mi South 4.6 mph - N/A   Clear
11:35 PM 57.2 °F 57.2 °F 100% 30.07 in 10.0 mi South 4.6 mph - N/A   Clear
11:55 PM 57.2 °F 57.2 °F 100% 30.07 in 10.0 mi South 4.6 mph - N/A   Clear